Location: La Mata
(41.0907°N, 3.8863°W)
Time: 08:39:38
(UTC+00:00)

Daily predictions for brighter satellites

Satellite Brightness Start Highest point End
(mag) Time Altitude Azimuth Time Altitude Azimuth Time Altitude Azimuth
Cosmos 1238 Rocket 3.8 19:53:33 10° S 19:58:44 81° W 20:04:31 10° N
BREEZE-M DEB (TANK) 3.1 19:57:14 10° SW 20:00:12 53° SE 20:05:44 10° ENE
Cosmos 2151 3.5 19:56:29 10° NNW 20:00:34 60° W 20:04:38 10° S
ATLAS 3B R/B 4.0 19:54:48 10° NNW 20:01:51 35° NE 20:08:50 10° ESE
Cosmos 1980 3.7 19:58:03 10° SSW 20:03:42 88° ESE 20:09:23 10° NNE
SPOT 5 4.2 20:03:04 10° ESE 20:06:38 22° ENE 20:10:04 10° NNE
Cosmos 1812 3.6 20:05:45 10° SSW 20:09:14 49° W 20:12:43 10° N
Cosmos 1464 Rocket 4.4 20:08:11 10° N 20:14:16 48° ENE 20:20:15 10° SSE
Okean O Rocket 1.6 20:10:40 10° SSE 20:15:05 77° ENE 20:19:32 10° N
Terra 3.7 20:14:36 10° E 20:17:22 16° ENE 20:20:08 10° NNE
ATLAS 2AS CENTAUR R/B 3.2 20:15:11 10° SW 20:22:36 72° NW 20:29:47 10° NNE
ERS-1 Rocket 4.4 20:18:56 10° ESE 20:22:45 22° ENE 20:26:35 10° NNE
Cosmos 1782 2.6 20:23:46 10° S 20:27:33 75° E 20:31:22 10° N
Intercosmos 24 4.4 20:29:18 10° SSW 20:32:51 62° W 20:37:12 10° N
Cosmos 1943 Rocket 2.2 20:30:11 10° NNW 20:35:53 84° ENE 20:41:02 13° SSE
CZ-4B R/B 4.2 20:32:37 10° S 20:37:45 45° W 20:42:51 10° NNW
Cosmos 972 4.3 20:32:54 10° S 20:37:47 69° ESE 20:42:40 10° NNE
ISS -0.8 20:36:28 10° NNW 20:38:12 13° N 20:39:58 10° NNE
Cosmos 2278 Rocket 2.9 20:35:09 10° NNW 20:40:38 52° WSW 20:46:05 10° S
NOSS 3-1 (A) 4.4 20:33:32 10° NNW 20:40:53 59° NE 20:48:11 16° SE
NOSS 3-1 (C) 4.2 20:33:38 10° NW 20:41:16 86° WSW 20:49:24 14° SSE
OAO 2 Rocket 3.9 20:36:30 10° WSW 20:41:28 43° S 20:45:09 17° ESE
Meteor 1-25 Rocket 4.3 20:36:56 10° NNW 20:42:32 80° W 20:48:11 10° S
USA 245 4.3 20:42:40 12° ENE 20:42:43 12° ENE 20:43:45 10° NE
SL-24 R/B - RUBIN 2 4.4 20:37:16 10° SSW 20:43:09 67° ESE 20:49:40 10° NE
Cosmos 2112 Rocket 4.2 20:42:01 10° S 20:47:09 52° ESE 20:52:18 10° NNE
Okean-O 2.6 20:45:51 12° SSE 20:49:53 87° WSW 20:54:19 10° NNW
USA 290 2.9 20:49:14 10° N 20:52:17 38° ENE 20:53:34 26° ESE
Cosmos-2242 4.1 20:49:32 10° SSW 20:53:34 45° WNW 20:57:38 10° N
Spot 2 Rocket 4.4 20:54:06 19° ESE 20:56:55 34° ENE 21:01:25 10° N
Cosmos 1680 Rocket 3.4 20:52:05 10° SSW 20:57:21 77° ESE 21:02:39 10° NNE
Cosmos 2034 Rocket 4.0 20:51:54 10° N 20:58:07 72° E 21:03:13 16° SSE
USA 32 4.4 21:01:10 21° SSE 21:04:19 45° E 21:09:16 10° NNE
Gbstr 26 Del rocket 3.8 20:59:23 10° WNW 21:05:26 61° SW 21:08:23 24° SSE
Cosmos 1933 4.2 21:02:30 10° SSW 21:06:19 47° W 21:10:09 10° N
Tsikada Rocket 4.0 21:00:58 12° S 21:06:33 64° E 21:12:42 10° NNE
SL-16 R/B 2.2 21:07:01 10° SSW 21:12:41 90° WNW 21:18:24 10° NNE
CZ-4C R/B 4.3 21:09:24 10° N 21:12:58 45° WNW 21:16:41 10° SW
USA 276 4.4 21:13:09 10° N 21:14:01 11° NNE 21:14:53 10° NE
MetOp-B 4.2 21:11:56 18° S 21:15:56 78° WSW 21:21:19 10° NNW
MOS 1 Rocket 4.2 21:13:56 26° ESE 21:16:07 39° ENE 21:20:55 10° N
Lacrosse 5 rocket 3.2 21:15:01 10° WSW 21:18:58 34° NW 21:22:52 10° NNE
Ariane Rocket 3.3 21:16:50 28° SE 21:19:15 53° ENE 21:24:12 10° N
Lacrosse 5 1.9 21:15:32 10° NW 21:20:40 77° NE 21:23:08 31° SE
Cosmos 2056 Rocket 3.6 21:15:29 10° NNW 21:20:53 67° ENE 21:23:29 30° SE
IRS-1C Rocket 4.2 21:17:46 21° S 21:21:22 77° WSW 21:26:40 10° NNW
Cosmos 1624 Rocket 4.0 21:18:01 10° NNW 21:23:12 68° ENE 21:25:36 32° SE
Cosmos 44 3.4 21:20:13 10° NNW 21:24:59 57° NE 21:26:45 34° ESE
Cosmos 2221 2.5 21:22:26 19° S 21:25:26 82° W 21:29:47 10° N
Spot 1 4.4 21:23:23 10° NNE 21:27:12 38° E 21:27:37 37° ESE
Resurs 01 Rocket 4.3 21:27:33 10° SW 21:29:57 14° W 21:32:23 10° WNW
Cosmos 2369 Rocket 2.7 21:24:38 10° NNW 21:30:02 47° ENE 21:32:23 30° ESE
USA 308 3.2 21:28:15 10° WNW 21:30:54 31° SW 21:31:01 31° SW
FALCON 9 R/B 3.5 21:27:21 10° WSW 21:32:49 58° S 21:51:51 10° ESE
Cosmos 2084 3.9 21:29:29 10° NNW 21:33:03 40° NE 21:33:53 35° E
Cosmos 921 Rocket 3.1 21:37:33 23° SSW 21:40:21 82° WNW 21:44:52 10° NNE
Landsat 4 3.7 21:42:40 51° SSW 21:43:18 63° WSW 21:46:47 10° NNW
SPOT 5 3.9 21:41:27 18° SSW 21:44:26 37° W 21:48:40 10° NNW
Okean 3 Rocket 3.6 21:43:01 10° N 21:47:22 60° E 21:48:05 52° ESE
GEOS 3 Rocket 4.1 21:43:55 10° NNE 21:49:02 60° NW 21:54:01 10° SW
SL-8 R/B 3.5 21:47:13 10° SW 21:51:57 75° SSE 21:56:43 10° ENE
ARGOS Delta rocket 4.4 21:49:28 29° SSW 21:52:01 58° W 21:56:56 10° NNW
ATLAS 3B R/B 3.2 21:45:24 10° NW 21:53:10 66° WSW 21:57:02 32° S
Terra 2.2 21:52:38 35° SSW 21:54:27 58° W 21:59:07 10° NNW
Landsat 5 3.0 21:51:07 10° NNE 21:54:54 73° ESE 21:54:55 73° ESE
Aureole 3 Rocket 3.9 21:51:27 10° NNW 21:55:10 46° W 21:57:20 27° SSW
Cosmos 1943 3.2 21:53:56 38° S 21:56:03 64° ESE 22:01:40 10° NNE
Cosmos 1048 Rocket 3.8 21:59:01 45° S 22:00:35 74° ESE 22:05:43 10° NNE
ERS-1 Rocket 3.8 21:58:51 26° SSW 22:01:11 44° W 22:06:00 10° NNW
Cosmos 1842 Rocket 3.6 22:01:41 49° SSW 22:02:51 77° W 22:07:18 10° N
Cosmos 494 Rocket 4.0 22:00:56 27° SSW 22:03:47 74° WNW 22:08:54 10° NNE
Meteor 1-10 Rocket 4.2 22:02:23 43° S 22:04:19 74° E 22:10:01 10° NNE
SPOT 3 Rocket 3.8 22:04:44 39° SSW 22:06:28 62° WSW 22:11:35 10° NNW
Cosmos 1656 Rocket 3.7 22:01:44 10° NNW 22:07:10 66° WSW 22:08:45 45° S
Meteor 1-19 Rocket 4.5 22:14:07 49° SE 22:15:11 56° E 22:20:53 10° NNE
Cosmos 1743 4.0 22:12:12 10° NNW 22:15:23 30° W 22:15:46 29° WSW
ISS -1.5 22:13:14 10° NNW 22:15:49 20° NNE 22:16:32 19° NE
ARIANE 5 R/B 3.8 22:16:04 29° ENE 22:16:04 29° ENE 22:19:48 10° N
Cosmos 1340 Rocket 4.1 22:17:22 29° ENE 22:17:22 29° ENE 22:19:53 10° NNE
USA 281 3.2 22:14:24 42° S 22:16:50 76° WSW 22:23:29 10° NNW
Meteor 1-11 Rocket 3.7 22:11:24 10° N 22:17:02 70° E 22:18:13 54° SE
Meteor 2-10 4.4 22:13:27 10° N 22:18:54 53° ENE 22:19:41 49° ESE
USA 59 Rocket 2.6 22:19:01 10° NNE 22:20:52 13° NE 22:22:58 10° ENE
Cosmos 1331 Rocket 4.1 22:17:21 10° NNW 22:22:33 61° ENE 22:23:13 56° ESE
Cosmos 1110 Rocket 4.0 22:19:11 10° NNW 22:24:30 70° ENE 22:25:12 61° ESE
CZ-2C R/B 4.2 22:23:39 10° NNE 22:27:22 46° ENE 22:27:22 46° ENE
Nadezhda 4 Rocket 3.9 22:30:38 56° SSE 22:31:54 73° E 22:38:07 10° NNE
Cosmos 1726 3.5 22:29:10 10° NNW 22:31:07 30° NW 22:31:07 30° NW
Cosmos 2279 Rocket 4.3 22:27:23 10° NNW 22:33:28 61° W 22:35:29 41° SSW
Molniya-1 3.7 22:35:27 80° SSW 22:35:41 87° ESE 22:43:35 10° NE
USA 229 DEB 4.0 22:39:21 10° NW 22:46:54 71° WSW 22:49:11 49° S
USA 229 4.0 22:39:26 10° NW 22:47:00 71° WSW 22:49:18 49° S
Cosmos 1743 Rocket 3.7 22:44:02 10° N 22:47:56 69° N 22:47:56 69° N
Sich 1 3.3 22:48:45 10° NNW 22:52:35 64° NW 22:52:35 64° NW
Cosmos 1536 4.2 22:54:37 10° NNW 22:57:32 31° WNW 22:57:32 31° WNW
Cosmos 1975 4.2 22:54:37 10° N 22:57:09 32° NE 22:57:09 32° NE
Cosmos 1603 4.0 22:57:29 44° WSW 22:59:07 63° WNW 23:04:47 10° NNE
Lacrosse 5 3.9 22:59:47 10° W 23:02:19 17° WSW 23:02:19 17° WSW
Cosmos 1340 4.4 23:00:29 10° NNW 23:02:14 28° NNW 23:02:14 28° NNW
Meteor 1-27 Rocket 4.2 23:04:40 44° WSW 23:05:49 52° WNW 23:11:12 10° N
Cosmos 1627 Rocket 4.4 23:05:12 65° SE 23:05:49 69° E 23:12:07 10° NNE
Cosmos 1452 Rocket 4.0 23:02:01 10° NNW 23:07:02 47° WSW 23:07:02 47° WSW
USA 267 3.1 23:03:22 10° NE 23:09:54 70° SE 23:10:42 63° S
Cosmos 2026 Rocket 3.9 23:12:22 71° SSE 23:13:01 80° E 23:19:20 10° N
Cosmos 2369 Rocket 3.7 23:09:20 10° NW 23:13:41 24° WSW 23:14:10 23° WSW
USA 306 4.4 23:12:09 10° NW 23:15:15 29° NNE 23:15:15 29° NNE
Cosmos 1833 Rocket 4.4 23:17:10 19° E 23:17:10 19° E 23:19:49 10° NE
Cosmos 1328 Rocket 4.4 23:33:10 47° N 23:33:10 47° N 23:36:19 10° N
Meteor 1-18 Rocket 4.2 23:33:57 83° SW 23:34:09 85° W 23:40:08 10° N
ALOS 2 3.4 23:36:13 48° NNE 23:36:13 48° NNE 23:39:33 10° N
Spot 4 4.2 23:37:28 62° NNW 23:37:28 62° NNW 23:41:27 10° NNW
H-2A R/B 3.8 23:38:30 36° NW 23:38:30 36° NW 23:41:14 10° NNW
Cosmos 1553 Rocket 4.1 23:33:22 10° N 23:39:23 60° E 23:39:39 59° E
Meteor 2-4 Rocket 4.0 23:42:30 58° W 23:42:59 60° WNW 23:48:52 10° N
USA 234 4.2 23:38:50 14° E 23:44:11 43° NNE 23:50:17 10° NW
Lacrosse 4 Rocket 3.1 23:43:34 10° N 23:46:28 29° NNE 23:46:28 29° NNE
ARIANE 5 R/B 4.5 23:53:32 22° WNW 23:53:32 22° WNW 23:55:58 10° NW
Cosmos 1818 3.9 23:53:37 59° ENE 23:53:37 59° ENE 23:58:08 10° NE
